Date,TemperatureHighF,TemperatureAvgF,TemperatureLowF,DewpointHighF,DewpointAvgF,DewpointLowF,HumidityHigh,HumidityAvg,HumidityLow,PressureMaxIn,PressureMinIn,WindSpeedMaxMPH,WindSpeedAvgMPH,GustSpeedMaxMPH,PrecipitationSumIn
2013-1-1,45.3,29.7,17.9,28.2,19.8,11.3,90,70,25,30.33,30.19,5,3,6,0.01
2013-1-2,49.7,33.6,21.8,27.2,20.6,16.7,83,62,31,30.25,30.09,6,3,9,0.00
2013-1-3,47.2,34.0,23.7,27.9,22.2,15.9,84,63,40,30.29,30.11,11,5,13,0.00
2013-1-4,45.6,32.2,23.1,27.6,23.3,18.7,89,72,44,30.38,30.26,6,3,8,0.00
2013-1-5,53.0,31.8,17.9,27.1,19.0,13.3,89,64,22,30.47,30.34,7,3,7,0.00
2013-1-6,51.7,33.9,21.4,24.4,18.7,15.4,87,59,25,30.38,30.13,6,4,6,0.00
2013-1-7,49.8,42.9,37.7,29.4,27.0,25.5,63,53,43,29.90,29.84,9,6,11,0.00
2013-1-8,59.4,42.5,29.0,29.6,22.1,13.6,79,49,17,30.11,29.88,15,4,17,0.00
2013-1-9,61.6,40.9,24.5,24.5,17.2,10.9,75,44,14,30.30,30.10,7,3,8,0.00
2013-1-10,61.9,44.1,22.1,27.4,18.9,13.9,75,42,19,30.12,29.82,18,7,28,0.00
2013-1-11,52.4,36.4,23.4,29.7,14.9,6.3,77,44,22,29.97,29.79,27,11,31,0.00
2013-1-12,38.4,25.0,12.6,11.6,6.0,-1.2,75,47,19,30.21,29.96,17,5,22,0.00
2013-1-13,40.2,23.0,7.5,8.7,3.9,-2.0,77,48,23,30.26,30.10,7,2,8,0.00
2013-1-14,37.4,24.1,13.7,7.6,3.4,-0.3,65,43,21,30.27,30.14,13,3,15,0.00
2013-1-15,36.7,20.8,7.7,8.4,1.2,-3.8,72,46,18,30.52,30.27,7,3,10,0.00
2013-1-16,51.5,30.9,15.5,17.3,2.8,-0.6,54,33,14,30.55,30.39,6,3,8,0.00
2013-1-17,59.0,38.4,25.1,16.3,9.8,4.8,52,32,16,30.43,30.28,7,3,8,0.00
2013-1-18,61.3,39.9,25.9,28.3,17.1,13.0,66,43,16,30.36,30.19,7,4,7,0.00
2013-1-19,65.7,43.5,26.9,35.2,18.1,12.4,63,39,14,30.33,30.19,7,4,8,0.00
2013-1-20,67.6,45.9,29.4,35.4,22.5,16.0,61,42,22,30.24,30.05,6,4,8,0.00
2013-1-21,68.1,48.5,34.1,28.8,25.2,22.1,69,44,20,30.15,30.02,8,4,10,0.00
2013-1-22,70.4,47.7,31.6,31.1,24.1,18.4,69,44,14,30.21,30.09,7,3,7,0.00
2013-1-23,71.3,48.5,30.6,28.8,24.2,20.0,68,42,17,30.28,30.15,7,3,9,0.00
2013-1-24,63.7,51.4,41.6,43.1,33.1,24.4,72,51,31,30.22,30.13,9,2,9,0.00
2013-1-25,66.3,54.2,40.7,48.8,40.4,36.0,85,61,39,30.19,29.97,13,3,16,0.00
2013-1-26,65.8,55.6,49.5,53.4,47.6,42.8,92,76,47,29.97,29.80,18,10,24,0.14
2013-1-27,59.9,52.7,47.5,45.9,43.3,40.8,88,71,55,29.94,29.86,9,3,11,0.00
2013-1-28,56.2,45.9,35.0,43.7,37.2,29.8,87,72,44,29.91,29.78,23,10,27,0.06
2013-1-29,43.6,35.1,29.9,30.5,23.7,16.5,92,66,35,30.21,29.90,24,12,28,0.05
2013-1-30,49.8,35.6,23.4,25.3,20.3,10.1,83,58,24,30.38,30.21,8,3,10,0.00
2013-1-31,55.5,38.1,24.4,29.2,23.6,19.1,81,59,30,30.32,30.20,7,4,8,0.00